This is the latest recevied weather packets stored in our database for station/object VK2BLR. If no packets are shown the sender has not sent any weather packets the latest 10 day(s).
| Time | Temp. | Humidity | Pressure | Rain* | Wind** | Luminosity | Snow |
|---|---|---|---|---|---|---|---|
| 1787610092 | 14.44° C | 87% | 1016.5 hPa | 0.51 mm | - | - | - |
| 1787609191 | 14.44° C | 87% | 1016.6 hPa | 0.51 mm | - | - | - |
| 1787608291 | 14.44° C | 86% | 1016.5 hPa | 0.25 mm | - | - | - |
| 1787607392 | 14.44° C | 85% | 1016.4 hPa | 0.51 mm | - | - | - |
| 1787606492 | 14.44° C | 84% | 1016.1 hPa | 0.25 mm | - | - | - |
| 1787605591 | 14.44° C | 85% | 1016 hPa | 0.25 mm | - | - | - |
| 1787604690 | 14.44° C | 85% | 1015.7 hPa | 0.25 mm | - | - | - |
| 1787603791 | 13.89° C | 84% | 1015.7 hPa | 0 mm | - | - | - |
| 1787602892 | 13.89° C | 84% | 1015.6 hPa | 0.25 mm | - | - | - |
| 1787601991 | 13.89° C | 84% | 1015.8 hPa | 0.25 mm | - | - | - |
| 1787601091 | 13.89° C | 83% | 1015.8 hPa | 0.25 mm | - | - | - |
| 1787600191 | 13.89° C | 83% | 1016.1 hPa | 0.25 mm | - | - | - |
| 1787599290 | 13.89° C | 84% | 1016.2 hPa | 0 mm | - | - | - |
| 1787598391 | 13.89° C | 84% | 1016.3 hPa | 0 mm | - | - | - |
| 1787597491 | 13.89° C | 84% | 1016.4 hPa | 0 mm | - | - | - |
| 1787596592 | 13.89° C | 83% | 1016.3 hPa | 0.25 mm | - | - | - |
| 1787595691 | 13.89° C | 82% | 1016.6 hPa | 0.25 mm | - | - | - |
| 1787594791 | 14.44° C | 82% | 1016.7 hPa | 0.51 mm | - | - | - |
| 1787593891 | 14.44° C | 81% | 1016.8 hPa | 0.51 mm | - | - | - |
| 1787592991 | 14.44° C | 79% | 1017.3 hPa | 0.25 mm | - | - | - |
| 1787592091 | 14.44° C | 75% | 1017.4 hPa | 0.51 mm | - | - | - |
| 1787591191 | 15° C | 73% | 1017.3 hPa | 0.25 mm | - | - | - |
| 1787590292 | 15.56° C | 71% | 1017.2 hPa | 0.25 mm | - | - | - |
| 1787589392 | 15.56° C | 69% | 1016.5 hPa | 0.25 mm | - | - | - |
| 1787588492 | 16.67° C | 64% | 1016.4 hPa | 0 mm | - | - | - |
* Rain latest hour (hover to see other rain measurements)
** Current wind speed in m/s (hover to see current wind gust speed)